User: anonymous   Login
Location: Unspecified
(0.0000°N, 0.0000°E)
Time: 16:15:58
(UTC+00:00)
Language:

Aussat K3 - Orbit

View from above orbital plane
View from above orbital plane
View from above satellite
View from above satellite

Ground track
Ground track

The orbit data is extracted from the following two-line orbital elements,

1 18350U 87078A   15088.68204002  .00000012  00000-0  00000+0 0  9993
2 18350 014.0210 026.7321 0004680 268.9161 214.5396 00.98903609 99999
Epoch (UTC): 29 March 2015 16:22:08
Eccentricity: 0.0004680
inclination: 14.0210°
perigee height: 36154 km
apogee height: 36194 km
right ascension of ascending node: 26.7321°
argument of perigee: 268.9161°
revolutions per day: 0.98903609
mean anomaly at epoch: 214.5396°
orbit number at epoch: 9999

The dashed part of the orbit path shows where the satellite is in the earth's shadow,  

DLR